Regional Weather Roundup
Issued by NWS Newport/Morehead, NC

Current Version | Previous Version | Graphics & Text | Print | Product List | Glossary On
Versions: 1 2 3 4 5 6 7 8 9 10 11 12 13 14 15 16 17 18 19 20 21 22 23 24 25 26 27 28 29 30 31 32 33 34 35 36 37 38 39 40 41 42 43 44 45 46 47 48 49 50
000
ASUS42 KMHX 260924
RWRMHX
WEATHER ROUNDUP FOR EASTERN NORTH CAROLINA
NATIONAL WEATHER SERVICE NEWPORT/MOREHEAD CITY NC
500 AM EDT SUN APR 26 2015

NOTE: "FAIR" INDICATES FEW OR NO CLOUDS BELOW 12,000 FEET
WITH NO SIGNIFICANT WEATHER AND/OR OBSTRUCTIONS TO VISIBILITY

NCZ015>017-031-032-045>047-102-103-261000-
NORTH COAST

CITY           SKY/WX    TMP DP  RH WIND       PRES   REMARKS
EDENTON        CLOUDY    47  46  97 N7        29.61S FOG
ELIZABETH CITY CLOUDY    48  46  93 NE17      29.61S
KITTY HAWK     CLOUDY    48  48 100 N10G18    29.58S FOG
MANTEO         CLOUDY    48  47  97 N16G24    29.59S

$$

NCZ045>047-081-094-103-104-261000-
CENTRAL COAST

CITY           SKY/WX    TMP DP  RH WIND       PRES   REMARKS
FRISCO         CLOUDY    53  53 100 NE10G17   29.56S
SWANQUARTER      N/A     54 N/A N/A NE8G15    29.53S

$$

NCZ095-097-098-100-101-261000-
SOUTHERN COAST

CITY           SKY/WX    TMP DP  RH WIND       PRES   REMARKS
BEAUFORT       CLOUDY    56  56 100 N10       29.55F
CEDAR ISLAND     N/A     57 N/A N/A NE10      29.59S
JACKSONVILLE   CLOUDY    58  57  97 N9        29.55S FOG
PINEY ISLAND   CLOUDY   N/A N/A N/A N8        29.56S
WILMINGTON     FOG       65  64  97 NE8       29.54S VSB 1/2


$$

NCZ011>013-027>030-043-044-078>080-089-090>093-098-261000-
COASTAL PLAIN

CITY           SKY/WX    TMP DP  RH WIND       PRES   REMARKS
AHOSKIE        CLOUDY    47  46  96 N8        29.61S
CLINTON        CLOUDY    56  56 100 N7        29.56F FOG
ELIZABETHTOWN  DRIZZLE   59  59 100 CALM      29.54F
GOLDSBORO      CLOUDY    49  49 100 NE8       29.55F
GREENVILLE     CLOUDY    48  48 100 N5        29.63S
HAVELOCK       CLOUDY    56  53  90 N10       29.57F
KENANSVILLE    CLOUDY    54  53  97 N5        29.56F FOG
KINSTON        CLOUDY    50  50  99 NE9       29.58S FOG
NEW BERN       CLOUDY    54  52  93 N7        29.59R
RICHLANDS      CLOUDY    55  52  88 N10       29.56F
ROCKY MOUNT    CLOUDY    47  46  97 N12       29.60F FOG
WASHINGTON     CLOUDY    49  48  97 NE8       29.58F
WHITEVILLE     CLOUDY    67  66  95 CALM      29.53S

$$

AMZ130-135-150-152-154-156-158-170-250-252-270-ANZ085-086-088-633-658-670-261000-
MARINE OBSERVATIONS

STATION/POSITION TIME  TEMP    WIND        PRES    WAVE   SWELL
                       AIR SEA DIR/SP/G            HT/PER HT/PER
                 (UTC) (F)     (DEG/KT/KT) (MB)    (FT/S) (FT/S)
CHESAPEAKE LIGHT 0900   46      30/ 20/ 21 1003.8
64 E VA BEACH    0850   54 58   30/ 19/ 23 1000.8    5/ 5
DUCK             0900   47 54   20/ 20/ 24 1001.2
2 E DUCK         0811      54                N/A     5/ 5
10 NE DUCK       NOT AVBL
OREGON INLET     0900   49 55  360/ 16/ 20 1001.5
HATTERAS CG      0800   57 65  360/ 19/ 21 1000.3
DIAMOND BUOY     0850   60 72  360/ 14/ 17 1000.2    4/ 7   2/ 7
CAPE LOOKOUT     0900   57      10/ 10/ 13 1000.4
BEAUFORT LAB     0800   60 62   10/ 12/ 15  999.9
27 SE WRIGHTSVLE 0900   67 72  260/ 10/ 12   N/A
5 SE WRIGHTSVLE  0808   67 65  210/  2/  6 1000.2
225 S CAPE HAT   0850   69 70  240/ 10/ 12 1001.4    6/ 6   5/ 6
41 SE CHARLESTON 0850   71 71  240/ 17/ 21 1001.6    4/ 4   2/ 8

$$



USA.gov is the U.S. government's official web portal to all federal, state and local government web resources and services.